Wetterdaten: Sonntag, 09.11.2014
Datum Zeit Temperatur Luftfeuchte Luftdruck Regen Wind Richtung Richtung Taupunkt Windchill Windben
09.11.2014 00:00 -0,1 C 94 % 1011,0 hPa 0,0 l/m 0,0 km/h (0 Bft) SO 135 -0,9 C 7,8 C 0,0 km/h (0 Bft)
09.11.2014 00:05 -0,6 C 94 % 1011,0 hPa 0,0 l/m 0,0 km/h (0 Bft) SO 135 -1,4 C 7,8 C 0,0 km/h (0 Bft)
09.11.2014 00:10 -0,7 C 94 % 1011,0 hPa 0,0 l/m 0,0 km/h (0 Bft) SO 135 -1,5 C 7,8 C 0,0 km/h (0 Bft)
09.11.2014 00:15 -0,7 C 94 % 1011,0 hPa 0,0 l/m 0,0 km/h (0 Bft) SO 135 -1,5 C 7,8 C 0,0 km/h (0 Bft)
09.11.2014 00:20 -0,7 C 94 % 1011,0 hPa 0,0 l/m 0,0 km/h (0 Bft) SO 135 -1,5 C 7,8 C 0,0 km/h (0 Bft)
09.11.2014 00:25 -0,5 C 94 % 1011,0 hPa 0,0 l/m 0,0 km/h (0 Bft) SO 135 -1,3 C 7,8 C 0,0 km/h (0 Bft)
09.11.2014 00:30 -0,7 C 94 % 1011,0 hPa 0,0 l/m 0,0 km/h (0 Bft) SO 135 -1,5 C 7,8 C 0,0 km/h (0 Bft)
09.11.2014 00:35 -1,0 C 94 % 1010,8 hPa 0,0 l/m 0,0 km/h (0 Bft) SO 135 -1,8 C 7,8 C 0,0 km/h (0 Bft)
09.11.2014 00:40 -1,4 C 94 % 1010,8 hPa 0,0 l/m 0,0 km/h (0 Bft) SO 135 -2,2 C 7,8 C 0,0 km/h (0 Bft)
09.11.2014 00:45 -1,2 C 94 % 1010,8 hPa 0,0 l/m 0,0 km/h (0 Bft) SO 135 -2,0 C 7,8 C 0,0 km/h (0 Bft)
09.11.2014 00:50 -0,7 C 94 % 1010,8 hPa 0,0 l/m 0,0 km/h (0 Bft) SO 135 -1,5 C 7,8 C 0,0 km/h (0 Bft)
09.11.2014 00:55 -0,9 C 94 % 1011,1 hPa 0,0 l/m 0,0 km/h (0 Bft) SO 135 -1,7 C 7,8 C 0,0 km/h (0 Bft)
09.11.2014 01:00 -1,1 C 94 % 1011,1 hPa 0,0 l/m 0,0 km/h (0 Bft) SO 135 -1,9 C 7,8 C 0,0 km/h (0 Bft)
09.11.2014 01:05 -1,0 C 94 % 1011,1 hPa 0,0 l/m 0,0 km/h (0 Bft) SO 135 -1,8 C 7,8 C 0,0 km/h (0 Bft)
09.11.2014 01:10 -1,0 C 94 % 1011,1 hPa 0,0 l/m 0,0 km/h (0 Bft) SO 135 -1,8 C 7,8 C 0,0 km/h (0 Bft)
09.11.2014 01:15 -1,2 C 94 % 1011,1 hPa 0,0 l/m 0,0 km/h (0 Bft) SO 135 -2,0 C 7,8 C 0,0 km/h (0 Bft)
09.11.2014 01:20 -1,5 C 94 % 1010,6 hPa 0,0 l/m 0,0 km/h (0 Bft) SO 135 -2,3 C 7,8 C 0,0 km/h (0 Bft)
09.11.2014 01:25 -1,5 C 94 % 1010,6 hPa 0,0 l/m 0,0 km/h (0 Bft) SO 135 -2,3 C 7,8 C 0,0 km/h (0 Bft)
09.11.2014 01:30 -0,9 C 94 % 1010,6 hPa 0,0 l/m 0,0 km/h (0 Bft) SO 135 -1,7 C 7,8 C 0,0 km/h (0 Bft)
09.11.2014 01:35 -0,8 C 94 % 1010,6 hPa 0,0 l/m 0,0 km/h (0 Bft) SO 135 -1,6 C 7,8 C 0,0 km/h (0 Bft)
09.11.2014 01:40 -0,9 C 94 % 1010,9 hPa 0,0 l/m 0,0 km/h (0 Bft) SO 135 -1,7 C 7,8 C 0,0 km/h (0 Bft)
09.11.2014 01:45 -0,7 C 94 % 1010,9 hPa 0,0 l/m 0,0 km/h (0 Bft) SO 135 -1,5 C 7,8 C 0,0 km/h (0 Bft)
09.11.2014 01:50 -0,9 C 94 % 1010,9 hPa 0,0 l/m 0,0 km/h (0 Bft) SO 135 -1,7 C 7,8 C 0,0 km/h (0 Bft)
09.11.2014 01:55 -1,2 C 94 % 1010,9 hPa 0,0 l/m 0,0 km/h (0 Bft) SO 135 -2,0 C 7,8 C 0,0 km/h (0 Bft)
09.11.2014 02:00 -1,2 C 94 % 1010,9 hPa 0,0 l/m 0,0 km/h (0 Bft) SO 135 -2,0 C 7,8 C 0,0 km/h (0 Bft)
09.11.2014 02:05 -1,0 C 94 % 1010,9 hPa 0,0 l/m 0,0 km/h (0 Bft) SO 135 -1,8 C 7,8 C 0,0 km/h (0 Bft)
09.11.2014 02:10 -1,2 C 94 % 1010,9 hPa 0,0 l/m 0,0 km/h (0 Bft) SO 135 -2,0 C 7,8 C 0,0 km/h (0 Bft)
09.11.2014 02:15 -1,1 C 94 % 1010,9 hPa 0,0 l/m 0,0 km/h (0 Bft) SO 135 -1,9 C 7,8 C 0,0 km/h (0 Bft)
09.11.2014 02:20 -1,1 C 94 % 1010,9 hPa 0,0 l/m 0,0 km/h (0 Bft) SO 135 -1,9 C 7,8 C 0,0 km/h (0 Bft)
09.11.2014 02:25 -1,1 C 94 % 1010,9 hPa 0,0 l/m 0,0 km/h (0 Bft) SO 135 -1,9 C 7,8 C 0,0 km/h (0 Bft)
09.11.2014 02:30 -0,8 C 94 % 1010,9 hPa 0,0 l/m 0,0 km/h (0 Bft) SO 135 -1,6 C 7,8 C 0,0 km/h (0 Bft)
09.11.2014 02:35 -0,9 C 94 % 1010,9 hPa 0,0 l/m 0,0 km/h (0 Bft) SO 135 -1,7 C 7,8 C 0,0 km/h (0 Bft)
09.11.2014 02:40 -0,9 C 94 % 1010,9 hPa 0,0 l/m 0,0 km/h (0 Bft) SO 135 -1,7 C 7,8 C 0,0 km/h (0 Bft)
09.11.2014 02:45 -0,5 C 94 % 1010,9 hPa 0,0 l/m 0,0 km/h (0 Bft) SO 135 -1,3 C 7,8 C 0,0 km/h (0 Bft)
09.11.2014 02:48 -0,7 C 94 % 1010,9 hPa 0,0 l/m 0,0 km/h (0 Bft) SO 135 -1,5 C 7,8 C 0,0 km/h (0 Bft)
09.11.2014 02:55 -0,2 C 95 % 1011,0 hPa 0,0 l/m 0,0 km/h (0 Bft) SO 135 -0,9 C 7,8 C 0,0 km/h (0 Bft)
09.11.2014 03:00 -0,6 C 95 % 1011,0 hPa 0,0 l/m 0,0 km/h (0 Bft) SO 135 -1,3 C 7,8 C 0,0 km/h (0 Bft)
09.11.2014 03:05 -0,8 C 94 % 1011,0 hPa 0,0 l/m 0,0 km/h (0 Bft) SO 135 -1,6 C 7,8 C 0,0 km/h (0 Bft)
09.11.2014 03:10 -0,8 C 95 % 1011,0 hPa 0,0 l/m 0,0 km/h (0 Bft) SO 135 -1,5 C 7,8 C 0,0 km/h (0 Bft)
09.11.2014 03:15 -1,1 C 94 % 1010,8 hPa 0,0 l/m 0,0 km/h (0 Bft) SO 135 -1,9 C 7,8 C 0,0 km/h (0 Bft)
09.11.2014 03:20 -1,1 C 94 % 1010,8 hPa 0,0 l/m 0,0 km/h (0 Bft) SO 135 -1,9 C 7,8 C 0,0 km/h (0 Bft)
09.11.2014 03:25 -0,9 C 94 % 1010,8 hPa 0,0 l/m 0,0 km/h (0 Bft) SO 135 -1,7 C 7,8 C 0,0 km/h (0 Bft)
09.11.2014 03:30 -0,8 C 95 % 1010,8 hPa 0,0 l/m 0,0 km/h (0 Bft) SO 135 -1,5 C 7,8 C 0,0 km/h (0 Bft)
09.11.2014 03:35 -0,7 C 95 % 1010,7 hPa 0,0 l/m 0,0 km/h (0 Bft) SO 135 -1,4 C 7,8 C 0,0 km/h (0 Bft)
09.11.2014 03:40 -0,5 C 95 % 1010,7 hPa 0,0 l/m 0,0 km/h (0 Bft) SO 135 -1,2 C 7,8 C 0,0 km/h (0 Bft)
09.11.2014 03:45 -0,3 C 95 % 1010,7 hPa 0,0 l/m 0,0 km/h (0 Bft) SO 135 -1,0 C 7,8 C 0,0 km/h (0 Bft)
09.11.2014 03:50 -0,4 C 95 % 1010,7 hPa 0,0 l/m 0,0 km/h (0 Bft) SO 135 -1,1 C 7,8 C 0,0 km/h (0 Bft)
09.11.2014 03:55 -0,5 C 95 % 1010,9 hPa 0,0 l/m 0,0 km/h (0 Bft) SO 135 -1,2 C 7,8 C 0,0 km/h (0 Bft)
09.11.2014 04:00 -0,4 C 95 % 1010,9 hPa 0,0 l/m 0,0 km/h (0 Bft) SO 135 -1,1 C 7,8 C 0,0 km/h (0 Bft)
09.11.2014 04:05 -0,2 C 95 % 1010,9 hPa 0,0 l/m 0,0 km/h (0 Bft) SO 135 -0,9 C 7,8 C 0,0 km/h (0 Bft)
09.11.2014 04:10 -0,2 C 95 % 1010,9 hPa 0,0 l/m 0,0 km/h (0 Bft) SO 135 -0,9 C 7,8 C 0,0 km/h (0 Bft)
09.11.2014 04:15 -0,2 C 95 % 1010,9 hPa 0,0 l/m 0,0 km/h (0 Bft) SO 135 -0,9 C 7,8 C 0,0 km/h (0 Bft)
09.11.2014 04:20 -0,3 C 95 % 1010,8 hPa 0,0 l/m 0,0 km/h (0 Bft) SO 135 -1,0 C 7,8 C 0,0 km/h (0 Bft)
09.11.2014 04:25 0,1 C 95 % 1010,8 hPa 0,0 l/m 0,0 km/h (0 Bft) SO 135 -0,6 C 7,8 C 0,0 km/h (0 Bft)
09.11.2014 04:30 0,1 C 95 % 1010,8 hPa 0,0 l/m 0,0 km/h (0 Bft) SO 135 -0,6 C 7,8 C 0,0 km/h (0 Bft)
09.11.2014 04:35 -0,1 C 95 % 1010,8 hPa 0,0 l/m 0,0 km/h (0 Bft) SO 135 -0,8 C 7,8 C 0,0 km/h (0 Bft)
09.11.2014 04:40 0,0 C 95 % 1010,8 hPa 0,0 l/m 0,0 km/h (0 Bft) SO 135 -0,7 C 7,8 C 0,0 km/h (0 Bft)
09.11.2014 04:45 0,2 C 95 % 1010,8 hPa 0,0 l/m 0,0 km/h (0 Bft) SO 135 -0,5 C 7,8 C 0,0 km/h (0 Bft)
09.11.2014 04:50 0,6 C 96 % 1010,8 hPa 0,0 l/m 0,0 km/h (0 Bft) SO 135 0,0 C 7,8 C 0,0 km/h (0 Bft)
09.11.2014 04:55 0,4 C 96 % 1010,8 hPa 0,0 l/m 0,0 km/h (0 Bft) SO 135 -0,2 C 7,8 C 0,0 km/h (0 Bft)
09.11.2014 05:00 0,2 C 96 % 1010,8 hPa 0,0 l/m 0,0 km/h (0 Bft) SO 135 -0,4 C 7,8 C 0,0 km/h (0 Bft)
09.11.2014 05:05 0,3 C 96 % 1010,8 hPa 0,0 l/m 0,0 km/h (0 Bft) SO 135 -0,3 C 7,8 C 0,0 km/h (0 Bft)
09.11.2014 05:10 0,6 C 96 % 1010,8 hPa 0,0 l/m 0,0 km/h (0 Bft) SO 135 0,0 C 7,8 C 0,0 km/h (0 Bft)
09.11.2014 05:15 0,4 C 96 % 1010,8 hPa 0,0 l/m 0,0 km/h (0 Bft) SO 135 -0,2 C 7,8 C 0,0 km/h (0 Bft)
09.11.2014 05:20 0,2 C 96 % 1010,7 hPa 0,0 l/m 0,0 km/h (0 Bft) SO 135 -0,4 C 7,8 C 0,0 km/h (0 Bft)
09.11.2014 05:25 -0,1 C 95 % 1010,7 hPa 0,0 l/m 0,0 km/h (0 Bft) SO 135 -0,8 C 7,8 C 0,0 km/h (0 Bft)
09.11.2014 05:30 0,1 C 96 % 1010,7 hPa 0,0 l/m 0,0 km/h (0 Bft) SO 135 -0,5 C 7,8 C 0,0 km/h (0 Bft)
09.11.2014 05:35 0,7 C 96 % 1010,7 hPa 0,0 l/m 0,0 km/h (0 Bft) SO 135 0,1 C 7,8 C 0,0 km/h (0 Bft)
09.11.2014 05:40 0,7 C 96 % 1010,7 hPa 0,0 l/m 0,0 km/h (0 Bft) SO 135 0,1 C 7,8 C 0,0 km/h (0 Bft)
09.11.2014 05:45 0,9 C 96 % 1010,7 hPa 0,0 l/m 0,0 km/h (0 Bft) SO 135 0,3 C 7,8 C 0,0 km/h (0 Bft)
09.11.2014 05:48 0,6 C 96 % 1010,7 hPa 0,0 l/m 0,0 km/h (0 Bft) SO 135 0,0 C 7,8 C 0,0 km/h (0 Bft)
09.11.2014 05:50 0,4 C 96 % 1010,7 hPa 0,0 l/m 0,0 km/h (0 Bft) SO 135 -0,2 C 7,8 C 0,0 km/h (0 Bft)
09.11.2014 05:55 0,4 C 96 % 1011,0 hPa 0,0 l/m 0,0 km/h (0 Bft) SO 135 -0,2 C 7,8 C 0,0 km/h (0 Bft)
09.11.2014 06:00 0,6 C 96 % 1011,0 hPa 0,0 l/m 0,0 km/h (0 Bft) SO 135 0,0 C 7,8 C 0,0 km/h (0 Bft)
09.11.2014 06:05 0,6 C 96 % 1011,0 hPa 0,0 l/m 0,0 km/h (0 Bft) SO 135 0,0 C 7,8 C 0,0 km/h (0 Bft)
09.11.2014 06:10 0,5 C 96 % 1011,0 hPa 0,0 l/m 0,0 km/h (0 Bft) SO 135 -0,1 C 7,8 C 0,0 km/h (0 Bft)
09.11.2014 06:15 0,6 C 96 % 1011,0 hPa 0,0 l/m 0,0 km/h (0 Bft) SO 135 0,0 C 7,8 C 0,0 km/h (0 Bft)
09.11.2014 06:20 1,0 C 96 % 1011,0 hPa 0,0 l/m 0,0 km/h (0 Bft) SO 135 0,4 C 7,8 C 0,0 km/h (0 Bft)
09.11.2014 06:25 1,1 C 96 % 1011,0 hPa 0,0 l/m 0,0 km/h (0 Bft) SO 135 0,5 C 7,8 C 0,0 km/h (0 Bft)
09.11.2014 06:30 0,7 C 96 % 1011,0 hPa 0,0 l/m 0,0 km/h (0 Bft) SO 135 0,1 C 7,8 C 0,0 km/h (0 Bft)
09.11.2014 06:35 0,8 C 96 % 1011,3 hPa 0,0 l/m 0,0 km/h (0 Bft) SO 135 0,2 C 7,8 C 0,0 km/h (0 Bft)
09.11.2014 06:40 1,7 C 96 % 1011,3 hPa 0,0 l/m 0,0 km/h (0 Bft) SO 135 1,1 C 7,8 C 0,0 km/h (0 Bft)
09.11.2014 06:45 2,7 C 96 % 1011,3 hPa 0,0 l/m 0,0 km/h (0 Bft) SO 135 2,1 C 7,8 C 0,0 km/h (0 Bft)
09.11.2014 06:50 1,8 C 96 % 1011,3 hPa 0,0 l/m 0,0 km/h (0 Bft) SO 135 1,2 C 7,8 C 0,0 km/h (0 Bft)
09.11.2014 06:55 1,2 C 96 % 1011,5 hPa 0,0 l/m 0,0 km/h (0 Bft) SO 135 0,6 C 7,8 C 0,0 km/h (0 Bft)
09.11.2014 07:00 0,9 C 96 % 1011,5 hPa 0,0 l/m 0,0 km/h (0 Bft) SO 135 0,3 C 7,8 C 0,0 km/h (0 Bft)
09.11.2014 07:05 1,5 C 96 % 1011,5 hPa 0,0 l/m 0,0 km/h (0 Bft) SO 135 0,9 C 7,8 C 0,0 km/h (0 Bft)
09.11.2014 07:10 1,5 C 96 % 1011,5 hPa 0,0 l/m 0,0 km/h (0 Bft) SO 135 0,9 C 7,8 C 0,0 km/h (0 Bft)
09.11.2014 07:15 2,5 C 96 % 1011,5 hPa 0,0 l/m 0,0 km/h (0 Bft) SO 135 1,9 C 7,8 C 0,0 km/h (0 Bft)
09.11.2014 07:20 2,2 C 96 % 1011,7 hPa 0,0 l/m 0,0 km/h (0 Bft) SO 135 1,6 C 7,8 C 0,0 km/h (0 Bft)
09.11.2014 07:25 1,8 C 96 % 1011,7 hPa 0,0 l/m 0,0 km/h (0 Bft) SO 135 1,2 C 7,8 C 0,0 km/h (0 Bft)
09.11.2014 07:30 2,4 C 96 % 1011,7 hPa 0,0 l/m 0,0 km/h (0 Bft) SO 135 1,8 C 7,8 C 0,0 km/h (0 Bft)
09.11.2014 07:35 2,5 C 96 % 1011,7 hPa 0,0 l/m 0,0 km/h (0 Bft) SO 135 1,9 C 7,8 C 0,0 km/h (0 Bft)
09.11.2014 07:40 1,5 C 97 % 1011,6 hPa 0,0 l/m 0,0 km/h (0 Bft) SO 135 1,1 C 7,8 C 0,0 km/h (0 Bft)
09.11.2014 07:45 1,0 C 96 % 1011,6 hPa 0,0 l/m 0,0 km/h (0 Bft) SO 135 0,4 C 7,8 C 0,0 km/h (0 Bft)
09.11.2014 07:50 0,8 C 97 % 1011,6 hPa 0,0 l/m 0,0 km/h (0 Bft) SO 135 0,4 C 7,8 C 0,0 km/h (0 Bft)
09.11.2014 07:55 0,7 C 97 % 1011,6 hPa 0,0 l/m 0,0 km/h (0 Bft) SO 135 0,3 C 7,8 C 0,0 km/h (0 Bft)
09.11.2014 08:00 0,6 C 97 % 1012,1 hPa 0,0 l/m 0,0 km/h (0 Bft) SO 135 0,2 C 7,8 C 0,0 km/h (0 Bft)
09.11.2014 08:05 0,7 C 97 % 1012,1 hPa 0,0 l/m 0,0 km/h (0 Bft) SO 135 0,3 C 7,8 C 0,0 km/h (0 Bft)
09.11.2014 08:10 0,8 C 97 % 1012,1 hPa 0,0 l/m 0,0 km/h (0 Bft) SO 135 0,4 C 7,8 C 0,0 km/h (0 Bft)
09.11.2014 08:15 0,8 C 97 % 1012,1 hPa 0,0 l/m 0,0 km/h (0 Bft) SO 135 0,4 C 7,8 C 0,0 km/h (0 Bft)
09.11.2014 08:20 0,7 C 97 % 1012,2 hPa 0,0 l/m 0,0 km/h (0 Bft) SO 135 0,3 C 7,8 C 0,0 km/h (0 Bft)
09.11.2014 08:25 1,3 C 97 % 1012,2 hPa 0,0 l/m 0,0 km/h (0 Bft) SO 135 0,9 C 7,8 C 0,0 km/h (0 Bft)
09.11.2014 08:30 1,4 C 97 % 1012,2 hPa 0,0 l/m 0,0 km/h (0 Bft) SO 135 1,0 C 7,8 C 0,0 km/h (0 Bft)
09.11.2014 08:35 1,2 C 97 % 1012,2 hPa 0,0 l/m 0,0 km/h (0 Bft) SO 135 0,8 C 7,8 C 0,0 km/h (0 Bft)
09.11.2014 08:40 1,1 C 97 % 1012,2 hPa 0,0 l/m 0,0 km/h (0 Bft) SO 135 0,7 C 7,8 C 0,0 km/h (0 Bft)
09.11.2014 08:45 1,9 C 97 % 1012,2 hPa 0,0 l/m 0,0 km/h (0 Bft) SO 135 1,5 C 7,8 C 0,0 km/h (0 Bft)
09.11.2014 08:50 2,0 C 96 % 1012,2 hPa 0,0 l/m 0,0 km/h (0 Bft) SO 135 1,4 C 7,8 C 0,0 km/h (0 Bft)
09.11.2014 08:55 1,8 C 97 % 1012,4 hPa 0,0 l/m 0,0 km/h (0 Bft) SO 135 1,4 C 7,8 C 0,0 km/h (0 Bft)
09.11.2014 09:00 1,9 C 97 % 1012,4 hPa 0,0 l/m 0,0 km/h (0 Bft) SO 135 1,5 C 7,8 C 0,0 km/h (0 Bft)
09.11.2014 09:05 2,3 C 96 % 1012,4 hPa 0,0 l/m 0,0 km/h (0 Bft) SO 135 1,7 C 7,8 C 0,0 km/h (0 Bft)
09.11.2014 09:10 2,8 C 97 % 1012,4 hPa 0,0 l/m 0,0 km/h (0 Bft) SO 135 2,4 C 7,8 C 0,0 km/h (0 Bft)
09.11.2014 09:15 2,6 C 97 % 1012,3 hPa 0,0 l/m 0,0 km/h (0 Bft) SO 135 2,2 C 7,8 C 0,0 km/h (0 Bft)
09.11.2014 09:20 3,0 C 96 % 1012,3 hPa 0,0 l/m 0,0 km/h (0 Bft) SO 135 2,4 C 7,8 C 0,0 km/h (0 Bft)
09.11.2014 09:25 3,3 C 96 % 1012,3 hPa 0,0 l/m 0,0 km/h (0 Bft) SO 135 2,7 C 7,8 C 0,0 km/h (0 Bft)
09.11.2014 09:30 3,7 C 96 % 1012,3 hPa 0,0 l/m 0,0 km/h (0 Bft) SO 135 3,1 C 7,8 C 0,0 km/h (0 Bft)
09.11.2014 09:35 3,6 C 96 % 1012,2 hPa 0,0 l/m 0,0 km/h (0 Bft) SO 135 3,0 C 7,8 C 0,0 km/h (0 Bft)
09.11.2014 09:40 3,8 C 96 % 1012,2 hPa 0,0 l/m 0,0 km/h (0 Bft) SO 135 3,2 C 7,8 C 0,0 km/h (0 Bft)
09.11.2014 09:45 3,7 C 96 % 1012,2 hPa 0,0 l/m 0,0 km/h (0 Bft) SO 135 3,1 C 7,8 C 0,0 km/h (0 Bft)
09.11.2014 09:50 4,2 C 96 % 1012,2 hPa 0,0 l/m 0,0 km/h (0 Bft) SO 135 3,6 C 7,8 C 0,0 km/h (0 Bft)
09.11.2014 09:55 4,5 C 96 % 1012,2 hPa 0,0 l/m 0,0 km/h (0 Bft) SO 135 3,9 C 7,8 C 0,0 km/h (0 Bft)
09.11.2014 10:00 4,7 C 96 % 1012,2 hPa 0,0 l/m 0,0 km/h (0 Bft) SO 135 4,1 C 7,8 C 0,0 km/h (0 Bft)
09.11.2014 10:05 4,9 C 96 % 1012,2 hPa 0,0 l/m 0,0 km/h (0 Bft) SO 135 4,3 C 7,8 C 0,0 km/h (0 Bft)
09.11.2014 10:10 4,9 C 96 % 1012,2 hPa 0,0 l/m 0,0 km/h (0 Bft) SO 135 4,3 C 7,8 C 0,0 km/h (0 Bft)
09.11.2014 10:15 5,1 C 96 % 1012,2 hPa 0,0 l/m 0,0 km/h (0 Bft) SO 135 4,5 C 7,8 C 0,0 km/h (0 Bft)
09.11.2014 10:20 5,1 C 96 % 1012,3 hPa 0,0 l/m 0,0 km/h (0 Bft) SO 135 4,5 C 7,8 C 0,0 km/h (0 Bft)
09.11.2014 10:25 5,5 C 96 % 1012,3 hPa 0,0 l/m 0,0 km/h (0 Bft) SO 135 4,9 C 7,8 C 0,0 km/h (0 Bft)
09.11.2014 10:30 5,7 C 96 % 1012,3 hPa 0,0 l/m 0,0 km/h (0 Bft) SO 135 5,1 C 7,8 C 0,0 km/h (0 Bft)
09.11.2014 10:35 6,0 C 95 % 1012,3 hPa 0,0 l/m 0,0 km/h (0 Bft) SO 135 5,3 C 7,8 C 0,0 km/h (0 Bft)
09.11.2014 10:40 6,1 C 95 % 1012,4 hPa 0,0 l/m 0,0 km/h (0 Bft) SO 135 5,4 C 7,8 C 0,0 km/h (0 Bft)
09.11.2014 10:45 6,1 C 95 % 1012,4 hPa 0,0 l/m 0,0 km/h (0 Bft) SO 135 5,4 C 7,8 C 0,0 km/h (0 Bft)
09.11.2014 10:50 6,3 C 95 % 1012,4 hPa 0,0 l/m 0,0 km/h (0 Bft) SO 135 5,6 C 7,8 C 0,0 km/h (0 Bft)
09.11.2014 10:55 6,4 C 95 % 1012,4 hPa 0,0 l/m 0,0 km/h (0 Bft) SO 135 5,7 C 7,8 C 0,0 km/h (0 Bft)
09.11.2014 11:00 6,5 C 95 % 1012,8 hPa 0,0 l/m 0,0 km/h (0 Bft) SO 135 5,8 C 7,8 C 0,0 km/h (0 Bft)
09.11.2014 11:05 6,7 C 95 % 1012,8 hPa 0,0 l/m 0,0 km/h (0 Bft) SO 135 6,0 C 7,8 C 0,0 km/h (0 Bft)
09.11.2014 11:10 6,8 C 95 % 1012,8 hPa 0,0 l/m 0,0 km/h (0 Bft) SO 135 6,1 C 7,8 C 0,0 km/h (0 Bft)
09.11.2014 11:15 7,0 C 94 % 1012,8 hPa 0,0 l/m 0,0 km/h (0 Bft) SO 135 6,1 C 7,8 C 0,0 km/h (0 Bft)
09.11.2014 11:20 7,0 C 94 % 1012,7 hPa 0,0 l/m 0,0 km/h (0 Bft) SO 135 6,1 C 7,8 C 0,0 km/h (0 Bft)
09.11.2014 11:25 7,5 C 94 % 1012,7 hPa 0,0 l/m 0,0 km/h (0 Bft) SO 135 6,6 C 7,8 C 0,0 km/h (0 Bft)
09.11.2014 11:30 7,5 C 94 % 1012,7 hPa 0,0 l/m 0,0 km/h (0 Bft) SO 135 6,6 C 7,8 C 0,0 km/h (0 Bft)
09.11.2014 11:35 7,5 C 94 % 1012,7 hPa 0,0 l/m 0,0 km/h (0 Bft) SO 135 6,6 C 7,8 C 0,0 km/h (0 Bft)
09.11.2014 11:40 7,5 C 94 % 1012,9 hPa 0,0 l/m 0,0 km/h (0 Bft) SO 135 6,6 C 7,8 C 0,0 km/h (0 Bft)
09.11.2014 11:43 7,8 C 93 % 1012,9 hPa 0,0 l/m 0,0 km/h (0 Bft) SO 135 6,7 C 7,8 C 0,0 km/h (0 Bft)
09.11.2014 11:45 7,8 C 92 % 1012,9 hPa 0,0 l/m 0,0 km/h (0 Bft) SO 135 6,6 C 7,8 C 0,0 km/h (0 Bft)
09.11.2014 11:50 7,9 C 90 % 1012,9 hPa 0,0 l/m 0,0 km/h (0 Bft) SO 135 6,4 C 7,8 C 0,0 km/h (0 Bft)
09.11.2014 11:55 7,8 C 89 % 1013,1 hPa 0,0 l/m 0,0 km/h (0 Bft) SO 135 6,1 C 7,8 C 0,0 km/h (0 Bft)
09.11.2014 12:00 8,1 C 87 % 1013,1 hPa 0,0 l/m 0,0 km/h (0 Bft) SO 135 6,1 C 7,8 C 0,0 km/h (0 Bft)
09.11.2014 12:05 8,0 C 86 % 1013,1 hPa 0,0 l/m 0,0 km/h (0 Bft) SO 135 5,8 C 7,8 C 0,0 km/h (0 Bft)
09.11.2014 12:10 8,1 C 85 % 1013,1 hPa 0,0 l/m 0,0 km/h (0 Bft) SO 135 5,7 C 7,8 C 0,0 km/h (0 Bft)
09.11.2014 12:15 8,1 C 84 % 1012,9 hPa 0,0 l/m 0,0 km/h (0 Bft) SO 135 5,6 C 7,8 C 0,0 km/h (0 Bft)
09.11.2014 12:20 8,7 C 82 % 1012,9 hPa 0,0 l/m 0,0 km/h (0 Bft) SO 135 5,8 C 7,8 C 0,0 km/h (0 Bft)
09.11.2014 12:25 8,8 C 80 % 1012,9 hPa 0,0 l/m 0,0 km/h (0 Bft) SO 135 5,5 C 7,8 C 0,0 km/h (0 Bft)
09.11.2014 12:30 8,8 C 79 % 1012,9 hPa 0,0 l/m 0,0 km/h (0 Bft) SO 135 5,4 C 7,8 C 0,0 km/h (0 Bft)
09.11.2014 12:35 8,6 C 80 % 1012,5 hPa 0,0 l/m 0,0 km/h (0 Bft) SO 135 5,3 C 7,8 C 0,0 km/h (0 Bft)
09.11.2014 12:40 8,6 C 81 % 1012,5 hPa 0,0 l/m 0,0 km/h (0 Bft) SO 135 5,5 C 7,8 C 0,0 km/h (0 Bft)
09.11.2014 12:45 8,5 C 81 % 1012,5 hPa 0,0 l/m 0,0 km/h (0 Bft) SO 135 5,4 C 7,8 C 0,0 km/h (0 Bft)
09.11.2014 12:50 8,7 C 80 % 1012,5 hPa 0,0 l/m 0,0 km/h (0 Bft) SO 135 5,4 C 7,8 C 0,0 km/h (0 Bft)
09.11.2014 12:55 9,1 C 77 % 1012,3 hPa 0,0 l/m 0,0 km/h (0 Bft) SO 135 5,3 C 7,8 C 0,0 km/h (0 Bft)
09.11.2014 13:00 9,4 C 78 % 1012,3 hPa 0,0 l/m 0,0 km/h (0 Bft) SO 135 5,8 C 7,8 C 0,0 km/h (0 Bft)
09.11.2014 13:05 9,2 C 78 % 1012,3 hPa 0,0 l/m 0,0 km/h (0 Bft) SO 135 5,6 C 7,8 C 0,0 km/h (0 Bft)
09.11.2014 13:10 9,2 C 78 % 1012,3 hPa 0,0 l/m 0,0 km/h (0 Bft) SO 135 5,6 C 7,8 C 0,0 km/h (0 Bft)
09.11.2014 13:15 9,1 C 78 % 1012,3 hPa 0,0 l/m 0,0 km/h (0 Bft) SO 135 5,5 C 7,8 C 0,0 km/h (0 Bft)
09.11.2014 13:20 9,2 C 77 % 1012,4 hPa 0,0 l/m 0,0 km/h (0 Bft) SO 135 5,4 C 7,8 C 0,0 km/h (0 Bft)
09.11.2014 13:25 9,6 C 76 % 1012,4 hPa 0,0 l/m 0,0 km/h (0 Bft) SO 135 5,6 C 7,8 C 0,0 km/h (0 Bft)
09.11.2014 13:30 9,5 C 78 % 1012,4 hPa 0,0 l/m 0,0 km/h (0 Bft) SO 135 5,9 C 7,8 C 0,0 km/h (0 Bft)
09.11.2014 13:35 9,6 C 79 % 1012,4 hPa 0,0 l/m 0,0 km/h (0 Bft) SO 135 6,1 C 7,8 C 0,0 km/h (0 Bft)
09.11.2014 13:40 10,1 C 77 % 1012,7 hPa 0,0 l/m 0,0 km/h (0 Bft) SO 135 6,3 C 7,8 C 0,0 km/h (0 Bft)
09.11.2014 13:45 10,9 C 75 % 1012,7 hPa 0,0 l/m 0,0 km/h (0 Bft) SO 135 6,6 C 7,8 C 0,0 km/h (0 Bft)
09.11.2014 13:50 11,2 C 74 % 1012,7 hPa 0,0 l/m 0,0 km/h (0 Bft) SO 135 6,7 C 7,8 C 0,0 km/h (0 Bft)
09.11.2014 13:55 11,1 C 72 % 1012,7 hPa 0,0 l/m 0,0 km/h (0 Bft) SO 135 6,2 C 7,8 C 0,0 km/h (0 Bft)
09.11.2014 14:00 11,3 C 69 % 1012,5 hPa 0,0 l/m 0,0 km/h (0 Bft) SO 135 5,8 C 7,8 C 0,0 km/h (0 Bft)
09.11.2014 14:05 11,7 C 67 % 1012,5 hPa 0,0 l/m 0,0 km/h (0 Bft) SO 135 5,8 C 7,8 C 0,0 km/h (0 Bft)
09.11.2014 14:10 11,8 C 64 % 1012,5 hPa 0,0 l/m 0,0 km/h (0 Bft) SO 135 5,2 C 7,8 C 0,0 km/h (0 Bft)
09.11.2014 14:15 12,0 C 65 % 1012,5 hPa 0,0 l/m 0,0 km/h (0 Bft) SO 135 5,6 C 7,8 C 0,0 km/h (0 Bft)
09.11.2014 14:20 12,1 C 61 % 1012,4 hPa 0,0 l/m 0,0 km/h (0 Bft) SO 135 4,8 C 7,8 C 0,0 km/h (0 Bft)
09.11.2014 14:25 12,0 C 61 % 1012,4 hPa 0,0 l/m 0,0 km/h (0 Bft) SO 135 4,7 C 7,8 C 0,0 km/h (0 Bft)
09.11.2014 14:30 11,7 C 62 % 1012,4 hPa 0,0 l/m 0,0 km/h (0 Bft) SO 135 4,7 C 7,8 C 0,0 km/h (0 Bft)
09.11.2014 14:35 12,0 C 64 % 1012,4 hPa 0,0 l/m 0,0 km/h (0 Bft) SO 135 5,4 C 7,8 C 0,0 km/h (0 Bft)
09.11.2014 14:40 11,9 C 63 % 1012,3 hPa 0,0 l/m 0,0 km/h (0 Bft) SO 135 5,1 C 7,8 C 0,0 km/h (0 Bft)
09.11.2014 14:43 11,6 C 63 % 1012,3 hPa 0,0 l/m 0,0 km/h (0 Bft) SO 135 4,8 C 7,8 C 0,0 km/h (0 Bft)
09.11.2014 14:50 11,2 C 65 % 1012,3 hPa 0,0 l/m 0,0 km/h (0 Bft) SO 135 4,9 C 7,8 C 0,0 km/h (0 Bft)
09.11.2014 14:55 10,9 C 67 % 1012,0 hPa 0,0 l/m 0,0 km/h (0 Bft) SO 135 5,0 C 7,8 C 0,0 km/h (0 Bft)
09.11.2014 15:00 10,8 C 68 % 1012,0 hPa 0,0 l/m 0,0 km/h (0 Bft) SO 135 5,1 C 7,8 C 0,0 km/h (0 Bft)
09.11.2014 15:05 10,7 C 69 % 1012,0 hPa 0,0 l/m 0,0 km/h (0 Bft) SO 135 5,2 C 7,8 C 0,0 km/h (0 Bft)
09.11.2014 15:10 10,4 C 70 % 1012,0 hPa 0,0 l/m 0,0 km/h (0 Bft) SO 135 5,2 C 7,8 C 0,0 km/h (0 Bft)
09.11.2014 15:15 10,2 C 70 % 1011,9 hPa 0,0 l/m 0,0 km/h (0 Bft) SO 135 5,0 C 7,8 C 0,0 km/h (0 Bft)
09.11.2014 15:20 9,9 C 73 % 1011,9 hPa 0,0 l/m 0,0 km/h (0 Bft) SO 135 5,3 C 7,8 C 0,0 km/h (0 Bft)
09.11.2014 15:25 9,7 C 73 % 1011,9 hPa 0,0 l/m 0,0 km/h (0 Bft) SO 135 5,1 C 7,8 C 0,0 km/h (0 Bft)
09.11.2014 15:30 9,5 C 74 % 1011,9 hPa 0,0 l/m 0,0 km/h (0 Bft) SO 135 5,1 C 7,8 C 0,0 km/h (0 Bft)
09.11.2014 15:35 9,3 C 75 % 1011,6 hPa 0,0 l/m 0,0 km/h (0 Bft) SO 135 5,1 C 7,8 C 0,0 km/h (0 Bft)
09.11.2014 15:40 9,2 C 76 % 1011,6 hPa 0,0 l/m 0,0 km/h (0 Bft) SO 135 5,2 C 7,8 C 0,0 km/h (0 Bft)
09.11.2014 15:45 9,2 C 76 % 1011,6 hPa 0,0 l/m 0,0 km/h (0 Bft) SO 135 5,2 C 7,8 C 0,0 km/h (0 Bft)
09.11.2014 15:50 9,0 C 77 % 1011,6 hPa 0,0 l/m 0,0 km/h (0 Bft) SO 135 5,2 C 7,8 C 0,0 km/h (0 Bft)
09.11.2014 15:55 9,2 C 77 % 1011,4 hPa 0,0 l/m 0,0 km/h (0 Bft) SO 135 5,4 C 7,8 C 0,0 km/h (0 Bft)
09.11.2014 16:00 9,2 C 78 % 1011,4 hPa 0,0 l/m 0,0 km/h (0 Bft) SO 135 5,6 C 7,8 C 0,0 km/h (0 Bft)
09.11.2014 16:05 8,9 C 78 % 1011,4 hPa 0,0 l/m 0,0 km/h (0 Bft) SO 135 5,3 C 7,8 C 0,0 km/h (0 Bft)
09.11.2014 16:10 8,9 C 78 % 1011,4 hPa 0,0 l/m 0,0 km/h (0 Bft) SO 135 5,3 C 7,8 C 0,0 km/h (0 Bft)
09.11.2014 16:15 9,1 C 79 % 1011,4 hPa 0,0 l/m 0,0 km/h (0 Bft) SO 135 5,7 C 7,8 C 0,0 km/h (0 Bft)
09.11.2014 16:20 8,9 C 79 % 1011,5 hPa 0,0 l/m 0,0 km/h (0 Bft) SO 135 5,5 C 7,8 C 0,0 km/h (0 Bft)
09.11.2014 16:25 8,5 C 79 % 1011,5 hPa 0,0 l/m 0,0 km/h (0 Bft) SO 135 5,1 C 7,8 C 0,0 km/h (0 Bft)
09.11.2014 16:30 8,2 C 80 % 1011,5 hPa 0,0 l/m 0,0 km/h (0 Bft) SO 135 5,0 C 7,8 C 0,0 km/h (0 Bft)
09.11.2014 16:35 8,3 C 81 % 1011,5 hPa 0,0 l/m 0,0 km/h (0 Bft) SO 135 5,2 C 7,8 C 0,0 km/h (0 Bft)
09.11.2014 16:40 8,1 C 81 % 1011,2 hPa 0,0 l/m 0,0 km/h (0 Bft) SO 135 5,0 C 7,8 C 0,0 km/h (0 Bft)
09.11.2014 16:45 7,9 C 82 % 1011,2 hPa 0,0 l/m 0,0 km/h (0 Bft) SO 135 5,0 C 7,8 C 0,0 km/h (0 Bft)
09.11.2014 16:50 7,9 C 83 % 1011,2 hPa 0,0 l/m 0,0 km/h (0 Bft) SO 135 5,2 C 7,8 C 0,0 km/h (0 Bft)
09.11.2014 16:55 7,7 C 83 % 1011,2 hPa 0,0 l/m 0,0 km/h (0 Bft) SO 135 5,0 C 7,8 C 0,0 km/h (0 Bft)
09.11.2014 17:00 7,4 C 83 % 1011,2 hPa 0,0 l/m 0,0 km/h (0 Bft) SO 135 4,7 C 7,8 C 0,0 km/h (0 Bft)
09.11.2014 17:05 6,4 C 83 % 1011,2 hPa 0,0 l/m 0,0 km/h (0 Bft) SO 135 3,7 C 7,8 C 0,0 km/h (0 Bft)
09.11.2014 17:10 6,7 C 84 % 1011,2 hPa 0,0 l/m 0,0 km/h (0 Bft) SO 135 4,2 C 7,8 C 0,0 km/h (0 Bft)
09.11.2014 17:15 6,8 C 85 % 1011,2 hPa 0,0 l/m 0,0 km/h (0 Bft) SO 135 4,5 C 7,8 C 0,0 km/h (0 Bft)
09.11.2014 17:20 6,4 C 85 % 1011,4 hPa 0,0 l/m 0,0 km/h (0 Bft) SO 135 4,1 C 7,8 C 0,0 km/h (0 Bft)
09.11.2014 17:25 6,4 C 86 % 1011,4 hPa 0,0 l/m 0,0 km/h (0 Bft) SO 135 4,2 C 7,8 C 0,0 km/h (0 Bft)
09.11.2014 17:30 6,4 C 86 % 1011,4 hPa 0,0 l/m 0,0 km/h (0 Bft) SO 135 4,2 C 7,8 C 0,0 km/h (0 Bft)
09.11.2014 17:35 6,4 C 87 % 1011,4 hPa 0,0 l/m 0,0 km/h (0 Bft) SO 135 4,4 C 7,8 C 0,0 km/h (0 Bft)
09.11.2014 17:40 6,3 C 87 % 1011,1 hPa 0,0 l/m 0,0 km/h (0 Bft) SO 135 4,3 C 7,8 C 0,0 km/h (0 Bft)
09.11.2014 17:43 6,2 C 88 % 1011,1 hPa 0,0 l/m 0,0 km/h (0 Bft) SO 135 4,4 C 7,8 C 0,0 km/h (0 Bft)
09.11.2014 17:45 6,4 C 88 % 1011,1 hPa 0,0 l/m 0,0 km/h (0 Bft) SO 135 4,6 C 7,8 C 0,0 km/h (0 Bft)
09.11.2014 17:50 6,2 C 89 % 1011,1 hPa 0,0 l/m 0,0 km/h (0 Bft) SO 135 4,5 C 7,8 C 0,0 km/h (0 Bft)
09.11.2014 17:55 6,0 C 89 % 1011,1 hPa 0,0 l/m 0,0 km/h (0 Bft) SO 135 4,3 C 7,8 C 0,0 km/h (0 Bft)
09.11.2014 18:00 5,8 C 89 % 1011,1 hPa 0,0 l/m 0,0 km/h (0 Bft) SO 135 4,1 C 7,8 C 0,0 km/h (0 Bft)
09.11.2014 18:05 5,7 C 89 % 1011,1 hPa 0,0 l/m 0,0 km/h (0 Bft) SO 135 4,0 C 7,8 C 0,0 km/h (0 Bft)
09.11.2014 18:10 6,0 C 89 % 1011,1 hPa 0,0 l/m 0,0 km/h (0 Bft) SO 135 4,3 C 7,8 C 0,0 km/h (0 Bft)
09.11.2014 18:15 5,8 C 90 % 1010,9 hPa 0,0 l/m 0,0 km/h (0 Bft) SO 135 4,3 C 7,8 C 0,0 km/h (0 Bft)
09.11.2014 18:20 5,4 C 90 % 1010,9 hPa 0,0 l/m 0,0 km/h (0 Bft) SO 135 3,9 C 7,8 C 0,0 km/h (0 Bft)
09.11.2014 18:25 5,5 C 91 % 1010,9 hPa 0,0 l/m 0,0 km/h (0 Bft) SO 135 4,2 C 7,8 C 0,0 km/h (0 Bft)
09.11.2014 18:30 5,3 C 90 % 1010,9 hPa 0,0 l/m 0,0 km/h (0 Bft) SO 135 3,8 C 7,8 C 0,0 km/h (0 Bft)
09.11.2014 18:35 5,0 C 90 % 1010,9 hPa 0,0 l/m 0,0 km/h (0 Bft) SO 135 3,5 C 7,8 C 0,0 km/h (0 Bft)
09.11.2014 18:40 4,7 C 91 % 1010,9 hPa 0,0 l/m 0,0 km/h (0 Bft) SO 135 3,4 C 7,8 C 0,0 km/h (0 Bft)
09.11.2014 18:45 4,8 C 91 % 1010,9 hPa 0,0 l/m 0,0 km/h (0 Bft) SO 135 3,5 C 7,8 C 0,0 km/h (0 Bft)
09.11.2014 18:50 4,6 C 91 % 1010,9 hPa 0,0 l/m 0,0 km/h (0 Bft) SO 135 3,3 C 7,8 C 0,0 km/h (0 Bft)
09.11.2014 18:55 4,9 C 91 % 1010,8 hPa 0,0 l/m 0,0 km/h (0 Bft) SO 135 3,6 C 7,8 C 0,0 km/h (0 Bft)
09.11.2014 19:00 4,7 C 92 % 1010,8 hPa 0,0 l/m 0,0 km/h (0 Bft) SO 135 3,5 C 7,8 C 0,0 km/h (0 Bft)
09.11.2014 19:05 4,4 C 92 % 1010,8 hPa 0,0 l/m 0,0 km/h (0 Bft) SO 135 3,2 C 7,8 C 0,0 km/h (0 Bft)
09.11.2014 19:10 4,4 C 92 % 1010,8 hPa 0,0 l/m 0,0 km/h (0 Bft) SO 135 3,2 C 7,8 C 0,0 km/h (0 Bft)
09.11.2014 19:15 3,9 C 92 % 1010,8 hPa 0,0 l/m 0,0 km/h (0 Bft) SO 135 2,7 C 7,8 C 0,0 km/h (0 Bft)
09.11.2014 19:20 4,2 C 92 % 1010,8 hPa 0,0 l/m 0,0 km/h (0 Bft) SO 135 3,0 C 7,8 C 0,0 km/h (0 Bft)
09.11.2014 19:25 3,8 C 92 % 1010,8 hPa 0,0 l/m 0,0 km/h (0 Bft) SO 135 2,6 C 7,8 C 0,0 km/h (0 Bft)
09.11.2014 19:30 3,8 C 92 % 1010,8 hPa 0,0 l/m 0,0 km/h (0 Bft) SO 135 2,6 C 7,8 C 0,0 km/h (0 Bft)
09.11.2014 19:35 3,7 C 92 % 1010,8 hPa 0,0 l/m 0,0 km/h (0 Bft) SO 135 2,5 C 7,8 C 0,0 km/h (0 Bft)
09.11.2014 19:40 4,4 C 92 % 1011,1 hPa 0,0 l/m 0,0 km/h (0 Bft) SO 135 3,2 C 7,8 C 0,0 km/h (0 Bft)
09.11.2014 19:45 4,5 C 93 % 1011,1 hPa 0,0 l/m 0,0 km/h (0 Bft) SO 135 3,5 C 7,8 C 0,0 km/h (0 Bft)
09.11.2014 19:50 4,5 C 93 % 1011,1 hPa 0,0 l/m 0,0 km/h (0 Bft) SO 135 3,5 C 7,8 C 0,0 km/h (0 Bft)
09.11.2014 19:55 3,9 C 93 % 1011,1 hPa 0,0 l/m 0,0 km/h (0 Bft) SO 135 2,9 C 7,8 C 0,0 km/h (0 Bft)
09.11.2014 20:00 4,4 C 93 % 1011,0 hPa 0,0 l/m 0,0 km/h (0 Bft) SO 135 3,4 C 7,8 C 0,0 km/h (0 Bft)
09.11.2014 20:05 4,1 C 94 % 1011,0 hPa 0,0 l/m 0,0 km/h (0 Bft) SO 135 3,2 C 7,8 C 0,0 km/h (0 Bft)
09.11.2014 20:10 3,8 C 94 % 1011,0 hPa 0,0 l/m 0,0 km/h (0 Bft) SO 135 2,9 C 7,8 C 0,0 km/h (0 Bft)
09.11.2014 20:15 3,6 C 94 % 1011,0 hPa 0,0 l/m 0,0 km/h (0 Bft) SO 135 2,7 C 7,8 C 0,0 km/h (0 Bft)
09.11.2014 20:20 4,2 C 94 % 1010,9 hPa 0,0 l/m 0,0 km/h (0 Bft) SO 135 3,3 C 7,8 C 0,0 km/h (0 Bft)
09.11.2014 20:25 4,3 C 94 % 1010,9 hPa 0,0 l/m 0,0 km/h (0 Bft) SO 135 3,4 C 7,8 C 0,0 km/h (0 Bft)
09.11.2014 20:30 3,9 C 94 % 1010,9 hPa 0,0 l/m 0,0 km/h (0 Bft) SO 135 3,0 C 7,8 C 0,0 km/h (0 Bft)
09.11.2014 20:35 3,7 C 94 % 1010,9 hPa 0,0 l/m 0,0 km/h (0 Bft) SO 135 2,8 C 7,8 C 0,0 km/h (0 Bft)
09.11.2014 20:40 3,5 C 94 % 1010,6 hPa 0,0 l/m 0,0 km/h (0 Bft) SO 135 2,6 C 7,8 C 0,0 km/h (0 Bft)
09.11.2014 20:45 3,3 C 93 % 1010,6 hPa 0,0 l/m 0,0 km/h (0 Bft) SO 135 2,3 C 7,8 C 0,0 km/h (0 Bft)
09.11.2014 20:50 3,0 C 93 % 1010,6 hPa 0,0 l/m 0,0 km/h (0 Bft) SO 135 2,0 C 7,8 C 0,0 km/h (0 Bft)
09.11.2014 20:55 3,0 C 93 % 1010,8 hPa 0,0 l/m 0,0 km/h (0 Bft) SO 135 2,0 C 7,8 C 0,0 km/h (0 Bft)
09.11.2014 21:00 2,7 C 94 % 1010,8 hPa 0,0 l/m 0,0 km/h (0 Bft) SO 135 1,8 C 7,8 C 0,0 km/h (0 Bft)
09.11.2014 21:05 2,4 C 94 % 1010,8 hPa 0,0 l/m 0,0 km/h (0 Bft) SO 135 1,5 C 7,8 C 0,0 km/h (0 Bft)
09.11.2014 21:10 2,7 C 94 % 1010,8 hPa 0,0 l/m 0,0 km/h (0 Bft) SO 135 1,8 C 7,8 C 0,0 km/h (0 Bft)
09.11.2014 21:15 2,9 C 94 % 1010,9 hPa 0,0 l/m 0,0 km/h (0 Bft) SO 135 2,0 C 7,8 C 0,0 km/h (0 Bft)
09.11.2014 21:20 3,0 C 93 % 1010,9 hPa 0,0 l/m 0,0 km/h (0 Bft) SO 135 2,0 C 7,8 C 0,0 km/h (0 Bft)
09.11.2014 21:25 2,7 C 95 % 1010,9 hPa 0,0 l/m 0,0 km/h (0 Bft) SO 135 2,0 C 7,8 C 0,0 km/h (0 Bft)
09.11.2014 21:30 2,4 C 94 % 1010,9 hPa 0,0 l/m 0,0 km/h (0 Bft) SO 135 1,5 C 7,8 C 0,0 km/h (0 Bft)
09.11.2014 21:35 3,0 C 94 % 1010,9 hPa 0,0 l/m 0,0 km/h (0 Bft) SO 135 2,1 C 7,8 C 0,0 km/h (0 Bft)
09.11.2014 21:40 3,4 C 94 % 1010,9 hPa 0,0 l/m 0,0 km/h (0 Bft) SO 135 2,5 C 7,8 C 0,0 km/h (0 Bft)
09.11.2014 21:45 3,4 C 94 % 1010,9 hPa 0,0 l/m 0,0 km/h (0 Bft) SO 135 2,5 C 7,8 C 0,0 km/h (0 Bft)
09.11.2014 21:50 3,7 C 94 % 1010,9 hPa 0,0 l/m 0,0 km/h (0 Bft) SO 135 2,8 C 7,8 C 0,0 km/h (0 Bft)
09.11.2014 21:55 3,3 C 94 % 1011,1 hPa 0,0 l/m 0,0 km/h (0 Bft) SO 135 2,4 C 7,8 C 0,0 km/h (0 Bft)
09.11.2014 22:00 2,3 C 95 % 1011,1 hPa 0,0 l/m 0,0 km/h (0 Bft) SO 135 1,6 C 7,8 C 0,0 km/h (0 Bft)
09.11.2014 22:05 2,5 C 95 % 1011,1 hPa 0,0 l/m 0,0 km/h (0 Bft) SO 135 1,8 C 7,8 C 0,0 km/h (0 Bft)
09.11.2014 22:10 2,5 C 95 % 1011,1 hPa 0,0 l/m 0,0 km/h (0 Bft) SO 135 1,8 C 7,8 C 0,0 km/h (0 Bft)
09.11.2014 22:15 2,8 C 95 % 1011,1 hPa 0,0 l/m 0,0 km/h (0 Bft) SO 135 2,1 C 7,8 C 0,0 km/h (0 Bft)
09.11.2014 22:20 3,0 C 94 % 1011,2 hPa 0,0 l/m 0,0 km/h (0 Bft) SO 135 2,1 C 7,8 C 0,0 km/h (0 Bft)
09.11.2014 22:25 3,1 C 94 % 1011,2 hPa 0,0 l/m 0,0 km/h (0 Bft) SO 135 2,2 C 7,8 C 0,0 km/h (0 Bft)
09.11.2014 22:30 3,0 C 94 % 1011,2 hPa 0,0 l/m 0,0 km/h (0 Bft) SO 135 2,1 C 7,8 C 0,0 km/h (0 Bft)
09.11.2014 22:35 3,1 C 94 % 1011,2 hPa 0,0 l/m 0,0 km/h (0 Bft) SO 135 2,2 C 7,8 C 0,0 km/h (0 Bft)
09.11.2014 22:40 3,2 C 94 % 1011,1 hPa 0,0 l/m 0,0 km/h (0 Bft) SO 135 2,3 C 7,8 C 0,0 km/h (0 Bft)
09.11.2014 22:45 3,3 C 95 % 1011,1 hPa 0,0 l/m 0,0 km/h (0 Bft) SO 135 2,6 C 7,8 C 0,0 km/h (0 Bft)
09.11.2014 22:50 3,1 C 95 % 1011,1 hPa 0,0 l/m 0,0 km/h (0 Bft) SO 135 2,4 C 7,8 C 0,0 km/h (0 Bft)
09.11.2014 22:55 3,0 C 95 % 1011,1 hPa 0,0 l/m 0,0 km/h (0 Bft) SO 135 2,3 C 7,8 C 0,0 km/h (0 Bft)
09.11.2014 23:00 3,0 C 95 % 1011,2 hPa 0,0 l/m 0,0 km/h (0 Bft) SO 135 2,3 C 7,8 C 0,0 km/h (0 Bft)
09.11.2014 23:05 3,1 C 95 % 1011,2 hPa 0,0 l/m 0,0 km/h (0 Bft) SO 135 2,4 C 7,8 C 0,0 km/h (0 Bft)
09.11.2014 23:10 3,0 C 95 % 1011,2 hPa 0,0 l/m 0,0 km/h (0 Bft) SO 135 2,3 C 7,8 C 0,0 km/h (0 Bft)
09.11.2014 23:15 2,9 C 95 % 1011,2 hPa 0,0 l/m 0,0 km/h (0 Bft) SO 135 2,2 C 7,8 C 0,0 km/h (0 Bft)
09.11.2014 23:20 2,9 C 95 % 1011,2 hPa 0,0 l/m 0,0 km/h (0 Bft) SO 135 2,2 C 7,8 C 0,0 km/h (0 Bft)
09.11.2014 23:25 2,9 C 96 % 1011,2 hPa 0,0 l/m 0,0 km/h (0 Bft) SO 135 2,3 C 7,8 C 0,0 km/h (0 Bft)
09.11.2014 23:30 3,0 C 95 % 1011,2 hPa 0,0 l/m 0,0 km/h (0 Bft) SO 135 2,3 C 7,8 C 0,0 km/h (0 Bft)
09.11.2014 23:35 3,0 C 95 % 1011,2 hPa 0,0 l/m 0,0 km/h (0 Bft) SO 135 2,3 C 7,8 C 0,0 km/h (0 Bft)
09.11.2014 23:38 2,9 C 96 % 1011,2 hPa 0,0 l/m 0,0 km/h (0 Bft) SO 135 2,3 C 7,8 C 0,0 km/h (0 Bft)
09.11.2014 23:40 2,9 C 95 % 1011,2 hPa 0,0 l/m 0,0 km/h (0 Bft) SO 135 2,2 C 7,8 C 0,0 km/h (0 Bft)
09.11.2014 23:45 2,8 C 95 % 1011,2 hPa 0,0 l/m 0,0 km/h (0 Bft) SO 135 2,1 C 7,8 C 0,0 km/h (0 Bft)
09.11.2014 23:50 2,8 C 95 % 1011,2 hPa 0,0 l/m 0,0 km/h (0 Bft) SO 135 2,1 C 7,8 C 0,0 km/h (0 Bft)
09.11.2014 23:55 2,8 C 95 % 1011,2 hPa 0,0 l/m 0,0 km/h (0 Bft) SO 135 2,1 C 7,8 C 0,0 km/h (0 Bft)
_ Min-Zeit 01:25 14:25 20:50 - 23:55 - - 01:25 23:55 23:55
Minimum _ -1,5 C 61 % 1010,6 hPa - 0,0 km/h (0 Bft) - - -2,3 C 7,8 C 0,0 km/h (0 Bft)
_ Max-Zeit 14:20 09:15 12:10 23:55 23:55 - - 13:50 23:55 23:55
Maximum _ 12,1 C 97 % 1013,1 hPa 0,0 l/m 0,0 km/h
SO (0 Bft)
- - 6,7 C 7,8 C 0,0 km/h
SO (0 Bft)
Durchschnitt _ 3,9 C 90 % 1011,5 hPa #0,0 l/m 0,0 km/h (0 Bft) - - - 2,3 C 7,8 C 0,0 km/h (0 Bft)